Location: Belfast
(54.5830°N, 5.9330°W)
Time: 22:17:23
(UTC+01:00)

Coronas F rocket - Visible Passes

Search period start: 25 June 2016 00:00
Search period end: 05 July 2016 00:00
Orbit: 321 x 331 km, 82.5° (Epoch: 25 June)

Date Brightness Start Highest point End Pass type
(mag) Time Alt. Az. Time Alt. Az. Time Alt. Az.
25 Jun 1.2 02:02:20 23° S 02:03:52 87° ESE 02:06:36 10° NNE visible
26 Jun 3.9 00:49:10 10° ESE 00:50:21 12° E 00:51:33 10° ENE visible
26 Jun 2.3 02:20:08 17° SW 02:21:52 38° WNW 02:24:27 10° N visible
27 Jun 2.9 01:06:47 17° SE 01:08:04 24° E 01:10:21 10° NE visible
27 Jun 3.4 02:37:54 10° WSW 02:39:54 19° WNW 02:41:57 10° NNW visible
28 Jun 1.6 01:24:30 25° SSE 01:25:51 54° E 01:28:31 10° NNE visible
28 Jun 4.2 02:57:36 10° WNW 02:57:59 10° WNW 02:58:24 10° NW visible
29 Jun 1.6 01:42:10 22° SSW 01:43:40 59° WNW 01:46:22 10° N visible
30 Jun 3.4 00:28:41 13° ESE 00:29:54 17° E 00:31:45 10° NE visible
30 Jun 3.0 01:59:47 14° SW 02:01:33 26° WNW 02:03:56 10° N visible
01 Jul 2.3 00:46:15 21° SSE 00:47:31 34° E 00:50:02 10° NNE visible
01 Jul 3.9 02:17:56 10° W 02:19:29 14° WNW 02:21:02 10° NNW visible
02 Jul 1.2 01:03:46 25° S 01:05:11 85° ESE 01:07:54 10° NNE visible
02 Jul 3.8 23:50:22 10° ESE 23:51:26 12° E 23:52:31 10° ENE visible
03 Jul 2.3 01:21:14 18° SW 01:22:54 39° WNW 01:25:30 10° N visible
04 Jul 2.9 00:07:34 16° SE 00:08:53 23° E 00:11:07 10° NE visible
04 Jul 3.5 01:38:39 10° WSW 01:40:41 19° WNW 01:42:45 10° NNW visible
